Content
SEND FEEDBACK

Daily
Averages
Monthly
Summary
Mexico

SAN MARTINIANO, QUINTANA ROO


Home > North America > Mexico > Quintana Roo
Elevation: 15 meters     Latitude: 20 47N     Longitude: 087 16W

WEATHER
 
SELECT A DAY
Number of Records: 206,049;   Date Range: 2/21/06 - 12/19/14
 
SHARE

PRINT THIS DATA

[ ← Previous Day ]
WEATHER ALMANAC - 16 APRIL, 2014
[ Next Day → ]
[ °F ]   °C
Weather ElementAverageHighLow
Temperature18.6 °C27 °C (5:15 pm)11 °C (7:55 am)
Dewpoint11.4 °C16 °C (1:55 am)7 °C (8:15 am)
Humidity65.6 %94 % (1:55 am)36 % (2:55 pm)
Barometer1019.3 hPa1021.7 hPa (10:35 pm)1015.9 hPa (12:35 am)
Wind Speed17.1 km/h25.9 km/h (6:55 pm)
Wind Gust38.9 km/h (2:55 pm)
Weather ElementAverage
Visibility16.1 km
Wind DirectionESE (102.2 °)

Weather ElementTotal
Precipitation---
Cooling Degree Days0.7 (Base 18.3)
Growing Degree Days9 (Base 10)
Averaged from 69 records on 16 April, 2014
WEATHER CONDITIONS BREAKOUT
WIND DIRECTION BREAKOUT
WEATHER BY HOUR - 16 APRIL, 2014
[ °F ]   °C
Local TimeTemperatureDewpointHumidityBarometerVisibilityWind DirectionWind SpeedGust SpeedPrecipitationEventsConditions
12:35 AM18 °C15 °C83 %1015.9 hPa16.1 kmNW (310°)9.3 km/hScattered Clouds
12:55 AM18 °C15 °C83 %1015.9 hPa16.1 kmNW (320°)9.3 km/hMostly Cloudy
1:15 AM18 °C15 °C83 %1015.9 hPa16.1 kmNW (320°)13 km/hMostly Cloudy
1:35 AM18 °C15 °C83 %1015.9 hPa16.1 kmNNW (340°)13 km/hScattered Clouds
1:55 AM17 °C16 °C94 %1015.9 hPa16.1 kmNNW (340°)9.3 km/hScattered Clouds
2:15 AM17 °C15 °C88 %1015.9 hPa16.1 kmNorth (350°)20.4 km/h29.6 km/hMostly Cloudy
2:35 AM17 °C14 °C82 %1015.9 hPa16.1 kmNorth (360°)18.5 km/hOvercast
2:55 AM16 °C13 °C82 %1016.3 hPa16.1 kmNNW (340°)18.5 km/h25.9 km/hOvercast
3:15 AM15 °C12 °C82 %1016.6 hPa16.1 kmNorth (360°)14.8 km/h25.9 km/hOvercast
3:35 AM15 °C12 °C82 %1016.6 hPa16.1 kmNorth (350°)14.8 km/hOvercast
3:55 AM15 °C12 °C82 %1016.9 hPa16.1 kmNorth (360°)9.3 km/hOvercast
4:15 AM14 °C11 °C82 %1016.9 hPa16.1 kmNorth (10°)20.4 km/hOvercast
4:35 AM13 °C10 °C82 %1017.3 hPa16.1 kmNorth (10°)16.7 km/h31.5 km/hScattered Clouds
4:55 AM13 °C10 °C82 %1017.3 hPa16.1 kmNorth (10°)13 km/hMostly Cloudy
5:15 AM13 °C10 °C82 %1017.9 hPa16.1 kmNorth (360°)13 km/hMostly Cloudy
5:35 AM13 °C9 °C77 %1017.9 hPa16.1 kmNNE (20°)14.8 km/hMostly Cloudy
6:15 AM12 °C9 °C82 %1018.6 hPa16.1 kmNorth (10°)13 km/hOvercast
6:35 AM12 °C9 °C82 %1019 hPa16.1 kmNorth (10°)16.7 km/hOvercast
6:55 AM12 °C9 °C82 %1019 hPa16.1 kmNNE (30°)16.7 km/h27.8 km/hOvercast
7:15 AM12 °C9 °C82 %1019.3 hPa16.1 kmNNE (30°)11.1 km/h27.8 km/hOvercast
7:35 AM12 °C8 °C77 %1019.6 hPa16.1 kmNNE (30°)16.7 km/hOvercast
7:55 AM11 °C8 °C82 %1020 hPa16.1 kmNNE (30°)16.7 km/h25.9 km/hOvercast
8:15 AM11 °C7 °C76 %1020.3 hPa16.1 kmNNE (30°)11.1 km/h25.9 km/hMostly Cloudy
8:35 AM12 °C7 °C72 %1020.7 hPa16.1 kmNE (50°)14.8 km/h25.9 km/hOvercast
8:55 AM12 °C8 °C77 %1020.3 hPa16.1 kmNNE (30°)22.2 km/h31.5 km/hOvercast
9:15 AM13 °C8 °C72 %1020.7 hPa16.1 kmNNE (30°)16.7 km/h25.9 km/hMostly Cloudy
9:35 AM13 °C8 °C72 %1020.7 hPa16.1 kmNE (40°)14.8 km/hScattered Clouds
9:55 AM14 °C8 °C67 %1020.7 hPa16.1 kmNE (40°)14.8 km/h27.8 km/hClear
10:15 AM15 °C9 °C67 %1021 hPa16.1 kmNE (50°)24.1 km/h33.3 km/hClear
10:35 AM16 °C9 °C63 %1021 hPa16.1 kmNE (40°)18.5 km/h31.5 km/hClear
10:55 AM17 °C9 °C59 %1021.3 hPa16.1 kmENE (70°)20.4 km/h27.8 km/hClear
11:15 AM17 °C9 °C59 %1021 hPa16.1 kmENE (70°)16.7 km/h27.8 km/hClear
11:35 AM19 °C9 °C52 %1021 hPa16.1 kmENE (70°)16.7 km/h27.8 km/hClear
11:55 AM19 °C9 °C52 %1021 hPa16.1 kmNE (50°)18.5 km/h25.9 km/hClear
12:15 PM19 °C10 °C56 %1021 hPa16.1 kmNE (40°)13 km/hClear
12:35 PM21 °C9 °C46 %1020.7 hPa16.1 kmENE (60°)16.7 km/hClear
12:55 PM21 °C10 °C49 %1020.7 hPa16.1 kmENE (70°)16.7 km/h25.9 km/hClear
1:15 PM22 °C9 °C43 %1020.3 hPa16.1 kmEast (80°)16.7 km/h25.9 km/hClear
1:35 PM22 °C9 °C43 %1020.3 hPa16.1 kmNE (40°)20.4 km/hClear
2:15 PM23 °C9 °C41 %1020 hPa16.1 kmEast (80°)14.8 km/h27.8 km/hClear
2:35 PM24 °C9 °C38 %1019.6 hPa16.1 kmEast (80°)22.2 km/h27.8 km/hClear
2:55 PM25 °C9 °C36 %1019 hPa16.1 kmESE (110°)22.2 km/h38.9 km/hClear
3:15 PM25 °C9 °C36 %1019 hPa16.1 kmEast (90°)16.7 km/h29.6 km/hClear
3:35 PM25 °C10 °C39 %1019 hPa16.1 kmNE (50°)20.4 km/h31.5 km/hClear
3:55 PM25 °C11 °C41 %1019 hPa16.1 kmEast (90°)20.4 km/h31.5 km/hClear
4:15 PM26 °C11 °C39 %1018.6 hPa16.1 kmENE (60°)20.4 km/h31.5 km/hClear
4:35 PM26 °C11 °C39 %1018.3 hPa16.1 kmEast (80°)14.8 km/hClear
4:55 PM26 °C11 °C39 %1018.3 hPa16.1 kmENE (70°)18.5 km/h27.8 km/hClear
5:15 PM27 °C11 °C37 %1018.3 hPa16.1 kmEast (100°)16.7 km/h25.9 km/hScattered Clouds
5:35 PM26 °C11 °C39 %1017.9 hPa16.1 kmEast (90°)16.7 km/hScattered Clouds
5:55 PM26 °C12 °C42 %1018.3 hPa16.1 kmEast (80°)18.5 km/h33.3 km/hMostly Cloudy
6:15 PM26 °C12 °C42 %1018.6 hPa16.1 kmEast (80°)18.5 km/h33.3 km/hScattered Clouds
6:35 PM25 °C13 °C47 %1018.6 hPa16.1 kmENE (60°)20.4 km/h25.9 km/hScattered Clouds
6:55 PM25 °C14 °C50 %1019 hPa16.1 kmENE (70°)25.9 km/h35.2 km/hScattered Clouds
7:15 PM24 °C14 °C53 %1019 hPa16.1 kmENE (60°)24.1 km/h29.6 km/hMostly Cloudy
7:35 PM23 °C14 °C57 %1019.3 hPa16.1 kmNE (50°)20.4 km/h29.6 km/hMostly Cloudy
7:55 PM22 °C14 °C60 %1019.6 hPa16.1 kmENE (60°)22.2 km/hOvercast
8:15 PM22 °C14 °C60 %1020 hPa16.1 kmNE (50°)24.1 km/h33.3 km/hMostly Cloudy
8:35 PM21 °C14 °C64 %1020.3 hPa16.1 kmNE (50°)22.2 km/h29.6 km/hOvercast
8:55 PM21 °C14 °C64 %1020.7 hPa16.1 kmNE (50°)22.2 km/h31.5 km/hScattered Clouds
9:15 PM20 °C14 °C68 %1020.7 hPa16.1 kmENE (60°)22.2 km/h31.5 km/hScattered Clouds
9:35 PM20 °C15 °C73 %1020.7 hPa16.1 kmNE (50°)18.5 km/h33.3 km/hScattered Clouds
9:55 PM19 °C15 °C78 %1021 hPa16.1 kmNE (40°)16.7 km/h29.6 km/hScattered Clouds
10:15 PM19 °C15 °C78 %1021.3 hPa16.1 kmNE (50°)18.5 km/hClear
10:35 PM18 °C15 °C83 %1021.7 hPa16.1 kmNE (40°)16.7 km/hClear
10:55 PM18 °C15 °C83 %1021.3 hPa16.1 kmNE (40°)18.5 km/hClear
11:15 PM18 °C15 °C83 %1021.7 hPa16.1 kmNE (40°)13 km/hClear
11:35 PM17 °C15 °C88 %1021.7 hPa16.1 kmNNE (30°)11.1 km/hClear
11:55 PM17 °C15 °C88 %1021.7 hPa16.1 kmNNE (30°)9.3 km/hClear
Hourly data recorded from KPCM, located 0 kilometers away from San Martiniano, Quintana Roo







STORIES FROM OUR PARTNERS